QPF
0.00 0.00 0.00 0.00 0.00 0.00 0.00 0.00 0.00 0.00 0.00 0.00 0.00 0.00 0.00 0.00 0.00 0.00 0.00 0.00 0.00 0.00 0.00 0.00 0.00 0.00 0.00 0.00 0.00 0.00 0.00 0.00 0.00 0.00 0.00 0.00 0.00 0.00 0.00 0.00 0.00 0.00
0.00 0.00 0.00 0.00 0.00 0.00 0.00 0.00 0.00 0.00 0.00 0.00 0.00 0.00 0.00 0.00 0.00 0.00 0.00 0.00 0.00 0.00 0.00 0.00 0.00 0.00 0.00 0.00 0.00 0.00 0.00 0.00 0.00 0.00 0.00 0.00 0.00 0.00 0.00 0.00 0.00 0.00
0.00 0.00 0.00 0.00 0.00 0.00 0.00 0.00 0.00 0.00 0.00 0.00 0.00 0.00 0.00 0.00 0.00 0.00 0.00 0.00 0.00 0.00 0.00 0.00 0.00 0.00 0.00 0.00 0.00 0.00 0.00 0.00 0.00 0.00 0.00 0.00 0.00 0.00 0.00 0.00 0.00 0.00
0.00 0.00 0.00 0.00 0.00 0.00 0.00 0.00 0.00 0.00 0.00 0.00 0.00 0.00 0.00 0.00 0.00 0.00 0.00 0.00 0.00 0.00 0.00 0.00 0.00 0.00 0.00 0.00 0.00 0.00 0.00 0.00 0.00 0.00 0.00 0.00 0.00 0.00 0.00 0.00 0.00 0.00
0.00 0.00 0.00 0.00 0.00 0.00 0.00 0.00 0.00 0.00 0.00 0.00 0.00 0.00 0.00 0.00 0.00 0.00 0.00 0.00 0.00 0.00 0.00 0.00 0.00 0.00 0.00 0.00 0.00 0.00 0.00 0.00 0.00 0.00 0.00 0.00 0.00 0.00 0.00 0.00 0.00 0.00
0.00 0.00 0.00 0.00 0.00 0.00 0.00 0.00 0.00 0.00 0.00 0.00 0.00 0.00 0.00 0.00 0.00 0.00 0.00 0.00 0.00 0.00 0.00 0.00 0.00 0.00 0.00 0.00 0.00 0.00 0.00 0.00 0.00 0.00 0.00 0.00 0.00 0.00 0.00 0.00 0.00 0.00
0.00 0.00 0.00 0.00 0.00 0.00 0.00 0.00 0.00 0.00 0.00 0.00 0.00 0.00 0.00 0.00 0.00 0.00 0.00 0.00 0.00 0.00 0.00 0.00 0.00 0.00 0.00 0.00 0.00 0.00 0.00 0.00 0.00 0.00 0.00 0.00 0.00 0.00 0.00 0.00 0.00 0.00
0.00 0.00 0.00 0.00 0.00 0.00 0.00 0.00 0.00 0.00 0.00 0.00 0.00 0.00 0.00 0.00 0.00 0.00 0.00 0.00 0.00 0.00 0.00 0.00 0.00 0.00 0.00 0.00 0.00 0.00 0.00 0.00 0.00 0.00 0.00 0.00 0.00 0.00 0.00 0.00 0.00 0.00
0.00 0.00 0.00 0.00 0.00 0.00 0.00 0.00 0.00 0.00 0.00 0.00 0.00 0.00 0.00 0.00 0.00 0.00 0.00 0.00 0.00 0.00 0.00 0.00 0.00 0.00 0.00 0.00 0.00 0.00 0.00 0.00 0.00 0.00 0.00 0.00 0.00 0.00 0.00 0.00 0.00 0.00
0.00 0.01 0.00 0.00 0.00 0.00 0.00 0.00 0.00 0.00 0.00 0.00 0.00 0.00 0.00 0.00 0.00 0.00 0.00 0.00 0.00 0.00 0.00 0.00 0.00 0.00 0.00 0.00 0.00 0.00 0.00 0.00 0.00 0.00 0.00 0.00 0.00 0.00 0.00 0.00 0.00 0.00
0.00 0.01 0.01 0.01 0.00 0.00 0.00 0.00 0.00 0.00 0.00 0.00 0.00 0.00 0.00 0.00 0.00 0.00 0.00 0.00 0.00 0.00 0.00 0.00 0.00 0.00 0.00 0.00 0.00 0.00 0.00 0.00 0.00 0.00 0.00 0.00 0.00 0.00 0.00 0.00 0.00 0.00
0.00 0.01 0.02 0.02 0.02 0.01 0.00 0.00 0.00 0.00 0.00 0.00 0.00 0.00 0.00 0.00 0.00 0.00 0.00 0.00 0.00 0.00 0.00 0.00 0.00 0.00 0.00 0.00 0.00 0.00 0.00 0.00 0.00 0.00 0.00 0.00 0.00 0.00 0.00 0.00 0.00 0.00
0.04 0.02 0.05 0.19 0.10 0.15 0.02 0.00 0.00 0.00 0.00 0.00 0.00 0.00 0.00 0.00 0.00 0.00 0.00 0.00 0.00 0.00 0.00 0.00 0.00 0.00 0.00 0.00 0.00 0.00 0.00 0.00 0.00 0.00 0.00 0.00 0.00 0.00 0.00 0.00 0.00 0.00
0.25 0.08 0.50 0.14 0.17 0.07 0.01 0.00 0.00 0.00 0.00 0.00 0.00 0.00 0.00 0.01 0.00 0.00 0.00 0.00 0.00 0.00 0.00 0.00 0.00 0.00 0.00 0.00 0.00 0.00 0.00 0.00 0.00 0.00 0.00 0.00 0.00 0.00 0.00 0.00 0.00 0.00
0.67 0.32 0.43 0.06 0.01 0.02 0.03 0.00 0.00 0.00 0.00 0.00 0.00 0.01 0.00 0.00 0.00 0.00 0.00 0.01 0.00 0.00 0.00 0.00 0.00 0.00 0.00 0.00 0.00 0.00 0.00 0.00 0.00 0.00 0.00 0.00 0.00 0.00 0.00 0.00 0.00 0.00
0.49 0.46 0.16 0.08 0.01 0.02 0.04 0.01 0.01 0.01 0.00 0.00 0.04 0.07 0.02 0.00 0.00 0.00 0.00 0.00 0.00 0.00 0.00 0.00 0.00 0.00 0.00 0.00 0.00 0.00 0.00 0.00 0.00 0.00 0.00 0.00 0.00 0.00 0.00 0.00 0.00 0.00
0.43 0.13 0.08 0.06 0.01 0.06 0.04 0.02 0.01 0.01 0.03 0.03 0.01 0.01 0.00 0.00 0.00 0.00 0.00 0.00 0.00 0.00 0.00 0.00 0.00 0.00 0.00 0.00 0.00 0.00 0.00 0.00 0.00 0.00 0.00 0.00 0.00 0.00 0.00 0.00 0.00 0.00
0.20 0.09 0.24 0.30 0.12 0.16 0.10 0.02 0.02 0.02 0.02 0.03 0.00 0.01 0.00 0.00 0.00 0.00 0.00 0.00 0.00 0.00 0.00 0.00 0.00 0.00 0.00 0.00 0.00 0.00 0.00 0.00 0.00 0.00 0.00 0.00 0.00 0.00 0.00 0.00 0.00 0.00
0.02 0.50 0.83 0.36 0.17 0.11 0.01 0.01 0.01 0.00 0.00 0.00 0.00 0.00 0.01 0.04 0.00 0.00 0.00 0.00 0.00 0.00 0.00 0.00 0.00 0.00 0.00 0.00 0.00 0.00 0.00 0.00 0.00 0.00 0.00 0.00 0.00 0.00 0.00 0.00 0.00 0.00
0.18 0.52 0.71 0.42 0.12 0.09 0.07 0.01 0.02 0.02 0.02 0.01 0.01 0.01 0.00 0.00 0.00 0.00 0.00 0.00 0.00 0.00 0.00 0.00 0.00 0.00 0.00 0.00 0.00 0.00 0.00 0.00 0.00 0.00 0.00 0.00 0.00 0.00 0.00 0.00 0.00 0.00
0.20 0.78 0.78 0.33 0.14 0.04 0.03 0.09 0.06 0.04 0.07 0.10 0.07 0.00 0.00 0.00 0.00 0.00 0.00 0.00 0.00 0.00 0.00 0.00 0.00 0.00 0.00 0.00 0.00 0.00 0.00 0.00 0.00 0.00 0.00 0.00 0.00 0.00 0.00 0.00 0.00 0.00
0.41 0.68 0.52 0.14 0.06 0.08 0.18 0.05 0.01 0.00 0.00 0.00 0.00 0.00 0.00 0.00 0.00 0.00 0.00 0.00 0.00 0.00 0.00 0.00 0.00 0.00 0.00 0.00 0.00 0.00 0.00 0.00 0.00 0.00 0.00 0.00 0.00 0.00 0.00 0.00 0.00 0.00
0.73 0.54 0.33 0.10 0.18 0.09 0.03 0.01 0.02 0.01 0.00 0.00 0.00 0.00 0.00 0.00 0.00 0.00 0.00 0.00 0.00 0.00 0.00 0.00 0.00 0.00 0.00 0.00 0.00 0.00 0.00 0.00 0.00 0.00 0.00 0.00 0.00 0.00 0.00 0.00 0.00 0.00
0.89 0.51 0.35 0.19 0.03 0.03 0.03 0.03 0.02 0.01 0.00 0.00 0.00 0.00 0.00 0.00 0.00 0.00 0.00 0.00 0.00 0.00 0.00 0.00 0.00 0.00 0.00 0.00 0.00 0.00 0.00 0.00 0.00 0.00 0.00 0.00 0.00 0.00 0.00 0.00 0.00 0.00
0.16 0.14 0.15 0.04 0.03 0.08 0.04 0.01 0.00 0.00 0.00 0.00 0.00 0.00 0.00 0.00 0.00 0.00 0.00 0.00 0.00 0.00 0.00 0.00 0.00 0.00 0.00 0.00 0.00 0.00 0.00 0.00 0.00 0.00 0.00 0.00 0.00 0.00 0.00 0.00 0.00 0.00
0.07 0.06 0.02 0.02 0.04 0.03 0.02 0.00 0.00 0.00 0.00 0.00 0.00 0.00 0.00 0.00 0.00 0.00 0.00 0.00 0.00 0.00 0.00 0.00 0.00 0.01 0.00 0.00 0.00 0.00 0.00 0.01 0.00 0.00 0.00 0.00 0.00 0.00 0.00 0.00 0.00 0.00
MSLP
1014.09 1014.41 1014.69 1014.97 1015.13 1015.29 1015.69 1016.05 1016.25 1016.37 1016.53 1016.69 1016.85 1016.93 1016.93 1016.85 1016.97 1017.09 1017.17 1017.29 1017.41 1017.53 1017.61 1017.69 1017.73 1017.77 1017.73 1017.77 1017.85 1017.97 1018.09 1018.13 1018.13 1018.17 1018.29 1018.41 1018.49 1018.49 1018.57 1018.61 1018.81 1018.89
1013.93 1014.09 1014.29 1014.61 1014.97 1015.17 1015.37 1015.45 1015.81 1016.01 1016.25 1016.41 1016.45 1016.57 1016.65 1016.73 1016.85 1016.89 1017.05 1017.17 1017.25 1017.37 1017.45 1017.61 1017.69 1017.69 1017.69 1017.77 1017.81 1017.97 1018.05 1018.13 1018.13 1018.09 1018.29 1018.41 1018.37 1018.41 1018.49 1018.49 1018.57 1018.65
1013.65 1013.89 1014.05 1014.41 1014.73 1014.97 1015.17 1015.37 1015.57 1015.77 1016.01 1016.17 1016.29 1016.37 1016.49 1016.61 1016.77 1016.85 1016.89 1017.01 1017.09 1017.17 1017.29 1017.45 1017.57 1017.61 1017.65 1017.65 1017.77 1017.89 1017.97 1018.01 1018.09 1018.01 1018.17 1018.25 1018.25 1018.37 1018.29 1018.33 1018.41 1018.45
1013.29 1013.37 1013.69 1014.05 1014.37 1014.73 1015.05 1015.37 1015.61 1015.73 1015.89 1016.21 1016.29 1016.29 1016.41 1016.57 1016.69 1016.81 1016.89 1016.93 1017.05 1017.05 1017.09 1017.29 1017.41 1017.53 1017.57 1017.57 1017.65 1017.77 1017.77 1017.81 1017.81 1017.89 1018.09 1018.13 1018.17 1018.21 1018.21 1018.21 1018.21 1018.25
1012.89 1013.25 1013.57 1013.89 1014.25 1014.57 1014.89 1015.17 1015.45 1015.65 1015.89 1015.93 1016.09 1016.29 1016.45 1016.61 1016.77 1016.85 1016.89 1016.93 1016.93 1016.93 1016.97 1017.13 1017.25 1017.41 1017.45 1017.49 1017.57 1017.65 1017.65 1017.69 1017.65 1017.81 1018.01 1018.05 1017.97 1018.01 1017.97 1018.05 1018.09 1018.05
1012.65 1012.89 1013.29 1013.69 1014.05 1014.37 1014.77 1014.97 1015.21 1015.53 1015.73 1015.89 1015.93 1016.13 1016.29 1016.41 1016.57 1016.69 1016.73 1016.81 1016.85 1016.85 1016.93 1016.97 1017.13 1017.21 1017.25 1017.29 1017.41 1017.45 1017.45 1017.53 1017.49 1017.69 1017.85 1017.89 1017.77 1017.77 1017.81 1017.85 1017.89 1017.93
1012.53 1012.81 1013.13 1013.45 1013.85 1014.13 1014.53 1014.85 1015.09 1015.29 1015.45 1015.49 1015.73 1016.01 1016.05 1016.29 1016.45 1016.53 1016.65 1016.69 1016.73 1016.81 1016.85 1016.89 1017.01 1017.05 1017.05 1017.13 1017.25 1017.25 1017.25 1017.29 1017.33 1017.53 1017.65 1017.65 1017.69 1017.65 1017.65 1017.73 1017.73 1017.73
1012.09 1012.53 1012.97 1013.37 1013.73 1014.13 1014.45 1014.77 1015.01 1015.17 1015.21 1015.41 1015.61 1015.69 1015.85 1016.09 1016.29 1016.41 1016.53 1016.61 1016.73 1016.77 1016.81 1016.81 1016.89 1016.89 1016.89 1016.97 1017.05 1017.09 1017.13 1017.17 1017.25 1017.33 1017.45 1017.45 1017.53 1017.57 1017.49 1017.53 1017.57 1017.61
1011.93 1012.45 1012.81 1013.17 1013.49 1013.97 1014.37 1014.81 1015.05 1015.09 1015.01 1015.17 1015.37 1015.53 1015.73 1015.93 1016.09 1016.25 1016.41 1016.53 1016.69 1016.69 1016.77 1016.81 1016.85 1016.85 1016.77 1016.85 1016.89 1016.89 1016.93 1016.93 1016.97 1017.09 1017.21 1017.25 1017.29 1017.29 1017.29 1017.33 1017.53 1017.53
1011.89 1012.33 1012.77 1013.01 1013.21 1013.57 1013.85 1014.29 1014.69 1014.85 1014.81 1014.93 1015.09 1015.33 1015.61 1015.81 1015.97 1016.13 1016.33 1016.53 1016.61 1016.65 1016.73 1016.73 1016.77 1016.77 1016.69 1016.69 1016.65 1016.69 1016.73 1016.73 1016.73 1016.81 1016.89 1016.97 1017.01 1017.01 1017.05 1017.21 1017.25 1017.29
1011.77 1011.85 1012.13 1012.53 1012.89 1013.17 1013.69 1014.05 1014.33 1014.49 1014.57 1014.73 1015.01 1015.29 1015.45 1015.65 1015.77 1015.89 1016.13 1016.37 1016.53 1016.53 1016.53 1016.57 1016.53 1016.53 1016.57 1016.49 1016.45 1016.37 1016.41 1016.41 1016.45 1016.53 1016.61 1016.69 1016.73 1016.77 1016.81 1016.89 1016.97 1017.01
1011.33 1011.77 1012.73 1013.81 1014.17 1014.01 1014.09 1014.05 1014.05 1014.21 1014.37 1014.57 1014.81 1015.09 1015.25 1015.33 1015.37 1015.53 1015.73 1016.01 1016.13 1016.17 1016.17 1016.21 1016.25 1016.29 1016.33 1016.25 1016.17 1016.17 1016.21 1016.21 1016.21 1016.29 1016.37 1016.41 1016.45 1016.53 1016.57 1016.61 1016.69 1016.65
1012.09 1013.05 1013.53 1013.81 1013.77 1013.57 1013.49 1014.05 1013.97 1013.97 1014.13 1014.33 1014.45 1014.69 1014.89 1014.97 1015.05 1015.25 1015.33 1015.53 1015.69 1015.77 1015.85 1015.85 1015.89 1016.01 1016.09 1016.01 1015.97 1015.97 1015.97 1016.05 1016.09 1016.17 1016.17 1016.17 1016.21 1016.21 1016.21 1016.29 1016.37 1016.41
1012.65 1012.53 1011.77 1011.17 1011.21 1011.77 1012.21 1012.89 1013.41 1013.57 1013.69 1013.85 1014.09 1014.33 1014.37 1014.45 1014.53 1014.69 1014.81 1015.09 1015.21 1015.29 1015.33 1015.41 1015.57 1015.73 1015.77 1015.73 1015.69 1015.73 1015.81 1015.85 1015.89 1015.89 1015.89 1015.89 1015.93 1015.93 1015.97 1016.05 1016.09 1016.13
1009.89 1009.45 1009.81 1010.45 1010.93 1011.25 1011.73 1012.13 1012.61 1012.89 1013.21 1013.49 1013.73 1013.89 1014.01 1014.01 1014.05 1014.33 1014.61 1014.97 1014.97 1015.01 1015.01 1015.09 1015.29 1015.33 1015.33 1015.33 1015.41 1015.49 1015.49 1015.45 1015.49 1015.53 1015.61 1015.69 1015.69 1015.73 1015.81 1015.89 1015.93 1015.93
1009.17 1009.33 1009.57 1009.81 1010.25 1010.77 1011.25 1011.61 1012.21 1012.49 1012.77 1013.25 1013.53 1013.61 1013.69 1013.77 1014.01 1014.25 1014.45 1014.53 1014.57 1014.57 1014.61 1014.77 1014.89 1014.85 1014.73 1014.73 1014.77 1014.85 1015.01 1015.09 1015.21 1015.33 1015.41 1015.45 1015.53 1015.57 1015.61 1015.61 1015.61 1015.61
1009.29 1009.57 1010.01 1010.73 1010.93 1011.21 1011.33 1011.65 1012.05 1012.29 1012.65 1013.05 1013.37 1013.41 1013.41 1013.57 1013.97 1014.29 1014.33 1014.25 1014.21 1014.21 1014.33 1014.45 1014.45 1014.41 1014.33 1014.41 1014.53 1014.65 1014.81 1014.97 1015.05 1015.09 1015.09 1015.21 1015.29 1015.41 1015.37 1015.29 1015.29 1015.29
1009.17 1009.61 1010.45 1011.57 1012.05 1012.33 1012.49 1012.45 1012.45 1012.57 1012.85 1013.01 1013.13 1013.37 1013.41 1013.45 1013.73 1014.01 1014.05 1014.05 1014.05 1014.05 1014.09 1014.17 1014.21 1014.13 1014.17 1014.29 1014.41 1014.49 1014.57 1014.65 1014.73 1014.85 1014.85 1014.93 1015.01 1015.13 1015.13 1015.13 1015.05 1015.05
1009.21 1009.93 1010.65 1011.49 1012.05 1012.93 1013.09 1012.61 1012.53 1012.69 1012.97 1013.13 1013.09 1013.17 1013.57 1013.89 1013.69 1013.77 1013.89 1013.93 1013.97 1013.97 1014.01 1014.05 1014.09 1014.01 1014.09 1014.17 1014.21 1014.25 1014.37 1014.49 1014.53 1014.53 1014.61 1014.61 1014.69 1014.77 1014.85 1014.85 1014.85 1014.89
1009.65 1010.13 1010.65 1011.57 1011.85 1012.33 1012.93 1012.93 1012.69 1012.57 1012.77 1012.97 1013.21 1013.41 1013.45 1013.53 1013.45 1013.57 1013.61 1013.73 1013.81 1013.81 1013.81 1013.85 1013.93 1013.85 1013.93 1013.97 1014.01 1014.09 1014.17 1014.33 1014.33 1014.33 1014.29 1014.29 1014.33 1014.41 1014.49 1014.53 1014.57 1014.69
1009.73 1010.09 1010.81 1011.29 1010.89 1010.93 1011.69 1012.41 1012.53 1012.37 1012.45 1012.57 1012.85 1013.01 1013.21 1013.25 1013.29 1013.37 1013.33 1013.41 1013.53 1013.57 1013.65 1013.65 1013.57 1013.57 1013.73 1013.81 1013.89 1013.97 1014.01 1014.13 1014.17 1014.21 1014.21 1014.17 1014.13 1014.13 1014.17 1014.25 1014.33 1014.45
1009.29 1009.81 1010.57 1010.89 1011.17 1011.25 1011.49 1011.65 1011.65 1011.65 1011.69 1011.69 1012.17 1012.65 1012.77 1012.89 1012.93 1012.93 1013.01 1013.13 1013.21 1013.29 1013.33 1013.37 1013.21 1013.29 1013.45 1013.61 1013.73 1013.77 1013.89 1013.97 1014.05 1014.13 1014.13 1014.05 1013.97 1013.97 1014.05 1014.09 1014.17 1014.25
1008.89 1009.29 1009.77 1010.29 1010.41 1010.49 1010.53 1010.57 1010.85 1011.17 1011.21 1011.61 1012.29 1012.49 1012.57 1012.69 1012.65 1012.69 1012.73 1012.85 1012.89 1012.93 1012.97 1013.01 1012.97 1013.01 1013.21 1013.41 1013.57 1013.61 1013.73 1013.73 1013.85 1013.89 1013.89 1013.85 1013.69 1013.77 1013.93 1013.97 1014.01 1014.01
1008.61 1009.05 1009.45 1009.65 1010.01 1010.21 1010.13 1010.17 1010.33 1010.73 1011.17 1011.49 1011.97 1012.25 1012.37 1012.33 1012.37 1012.45 1012.49 1012.53 1012.61 1012.61 1012.57 1012.73 1012.73 1012.73 1013.01 1013.21 1013.33 1013.37 1013.37 1013.49 1013.61 1013.69 1013.65 1013.61 1013.57 1013.69 1013.77 1013.81 1013.81 1013.77
1008.29 1008.89 1009.13 1009.33 1009.61 1009.61 1009.61 1009.85 1010.09 1010.49 1010.97 1011.29 1011.57 1011.81 1011.89 1011.93 1012.05 1012.17 1012.25 1012.33 1012.37 1012.37 1012.37 1012.45 1012.41 1012.53 1012.93 1013.13 1013.21 1013.37 1013.45 1013.41 1013.45 1013.49 1013.49 1013.41 1013.45 1013.49 1013.57 1013.61 1013.69 1013.69
1007.81 1008.05 1008.33 1008.69 1008.89 1009.13 1009.41 1009.41 1009.69 1010.37 1010.69 1010.97 1011.21 1011.45 1011.57 1011.61 1011.65 1011.73 1011.85 1011.97 1012.13 1012.21 1012.13 1012.13 1012.45 1012.65 1012.65 1012.73 1012.93 1013.13 1013.25 1013.25 1013.29 1013.37 1013.29 1013.21 1013.33 1013.41 1013.37 1013.41 1013.57 1013.61
Thickness
5777 5774 5771 5768 5765 5763 5760 5758 5755 5753 5750 5749 5746 5745 5744 5743 5742 5741 5739 5738 5735 5733 5731 5729 5728 5726 5726 5724 5723 5721 5719 5717 5716 5714 5712 5710 5708 5707 5704 5702 5700 5697
5777 5775 5772 5769 5766 5763 5761 5758 5756 5754 5751 5749 5748 5746 5743 5742 5740 5739 5738 5736 5734 5732 5730 5727 5725 5724 5723 5722 5721 5718 5717 5714 5713 5711 5709 5707 5705 5704 5702 5700 5698 5695
5777 5775 5773 5769 5766 5762 5760 5758 5755 5753 5750 5748 5747 5745 5742 5740 5738 5736 5736 5734 5733 5731 5729 5726 5723 5721 5720 5719 5717 5715 5714 5712 5711 5710 5707 5705 5703 5701 5700 5698 5695 5694
5778 5776 5774 5770 5766 5762 5758 5755 5752 5750 5748 5746 5744 5742 5740 5738 5735 5734 5733 5731 5731 5729 5728 5725 5722 5719 5717 5716 5714 5712 5711 5710 5709 5707 5704 5703 5701 5699 5698 5696 5693 5692
5780 5776 5772 5768 5764 5760 5757 5753 5750 5748 5746 5743 5741 5739 5737 5735 5732 5730 5729 5728 5728 5727 5725 5723 5720 5718 5716 5714 5712 5710 5709 5708 5707 5705 5701 5700 5699 5697 5695 5694 5691 5689
5779 5775 5771 5767 5763 5760 5755 5752 5749 5746 5743 5741 5739 5737 5734 5733 5730 5728 5727 5725 5725 5724 5723 5721 5718 5716 5714 5712 5710 5709 5708 5706 5705 5702 5699 5697 5696 5695 5693 5691 5689 5687
5777 5774 5770 5765 5762 5758 5754 5751 5748 5745 5742 5740 5737 5735 5733 5731 5728 5726 5725 5723 5722 5721 5720 5719 5716 5714 5713 5711 5709 5707 5706 5704 5703 5700 5697 5695 5694 5692 5690 5688 5686 5684
5776 5771 5767 5763 5759 5754 5750 5747 5743 5741 5740 5738 5736 5734 5732 5730 5726 5724 5722 5721 5720 5719 5718 5716 5714 5712 5711 5709 5707 5705 5704 5702 5701 5698 5695 5693 5690 5688 5687 5685 5683 5680
5774 5768 5764 5761 5757 5753 5747 5743 5740 5738 5738 5736 5734 5733 5731 5727 5725 5722 5720 5719 5717 5716 5715 5713 5711 5710 5708 5707 5705 5703 5701 5700 5698 5696 5693 5691 5688 5686 5684 5682 5679 5677
5770 5766 5763 5760 5757 5752 5747 5742 5738 5735 5735 5735 5732 5730 5727 5724 5722 5719 5717 5715 5714 5713 5711 5709 5707 5706 5704 5703 5702 5701 5699 5698 5696 5694 5691 5689 5687 5685 5682 5679 5677 5675
5768 5766 5762 5755 5750 5746 5742 5739 5737 5734 5733 5733 5730 5727 5724 5721 5720 5719 5716 5714 5712 5710 5709 5707 5705 5704 5701 5701 5701 5699 5698 5697 5695 5693 5690 5688 5685 5683 5680 5678 5675 5673
5764 5759 5750 5741 5738 5738 5737 5735 5735 5733 5731 5730 5727 5723 5720 5719 5719 5717 5715 5713 5711 5709 5707 5706 5704 5702 5700 5700 5699 5698 5697 5695 5693 5691 5688 5686 5683 5681 5678 5676 5673 5671
5752 5746 5744 5742 5740 5740 5738 5733 5731 5730 5729 5727 5724 5721 5719 5718 5717 5716 5714 5713 5711 5709 5707 5705 5703 5701 5699 5698 5697 5696 5695 5692 5691 5688 5685 5683 5681 5679 5676 5673 5671 5668
5751 5752 5755 5754 5750 5745 5741 5735 5731 5728 5727 5725 5723 5720 5719 5718 5717 5715 5713 5711 5709 5707 5706 5705 5702 5699 5697 5697 5695 5694 5692 5690 5688 5686 5683 5681 5678 5676 5674 5670 5668 5664
5765 5766 5763 5758 5751 5745 5740 5736 5731 5728 5725 5723 5721 5719 5717 5717 5716 5714 5710 5707 5706 5706 5705 5704 5701 5698 5697 5696 5694 5692 5690 5688 5686 5683 5680 5678 5675 5673 5670 5667 5663 5660
5769 5765 5760 5754 5749 5743 5739 5735 5730 5726 5723 5720 5717 5716 5716 5714 5712 5710 5707 5705 5705 5705 5703 5701 5699 5698 5697 5696 5694 5691 5689 5686 5683 5680 5677 5674 5672 5669 5666 5663 5659 5656
5763 5758 5749 5741 5737 5735 5732 5729 5725 5722 5721 5717 5714 5714 5713 5711 5709 5704 5703 5704 5703 5703 5701 5699 5697 5697 5696 5694 5691 5689 5686 5683 5679 5676 5674 5671 5668 5665 5662 5659 5656 5652
5759 5751 5740 5732 5729 5725 5721 5721 5720 5718 5716 5713 5711 5710 5708 5707 5705 5702 5701 5701 5700 5700 5698 5696 5694 5693 5692 5690 5688 5686 5682 5679 5676 5673 5671 5668 5665 5661 5658 5655 5651 5648
5752 5744 5736 5729 5723 5716 5712 5714 5715 5714 5711 5709 5707 5706 5704 5703 5702 5701 5700 5698 5697 5697 5695 5692 5690 5689 5688 5686 5684 5682 5679 5675 5673 5670 5667 5665 5661 5658 5654 5650 5647 5643
5745 5738 5731 5725 5722 5718 5711 5708 5709 5710 5708 5705 5703 5703 5702 5701 5700 5699 5698 5696 5695 5694 5691 5689 5687 5685 5684 5682 5680 5678 5675 5672 5669 5667 5665 5662 5658 5654 5650 5647 5643 5639
5741 5735 5727 5722 5721 5720 5713 5707 5706 5707 5706 5706 5704 5702 5701 5700 5698 5697 5696 5694 5693 5691 5688 5687 5685 5683 5681 5678 5677 5674 5671 5668 5665 5663 5660 5657 5654 5650 5646 5643 5639 5635
5740 5734 5727 5721 5718 5717 5714 5711 5708 5706 5707 5707 5704 5700 5699 5697 5696 5695 5694 5692 5690 5689 5687 5685 5684 5682 5678 5676 5674 5671 5668 5665 5661 5658 5655 5652 5650 5646 5642 5638 5635 5632
5738 5733 5728 5724 5720 5717 5715 5713 5710 5708 5708 5705 5700 5697 5696 5694 5693 5692 5691 5689 5688 5687 5685 5682 5680 5679 5676 5673 5671 5667 5664 5661 5657 5654 5651 5648 5645 5642 5638 5635 5631 5628
5736 5731 5727 5724 5721 5717 5714 5712 5711 5708 5704 5700 5696 5693 5692 5690 5689 5689 5687 5686 5685 5684 5682 5680 5678 5677 5674 5670 5667 5664 5660 5657 5654 5650 5647 5644 5641 5638 5634 5631 5627 5624
5734 5730 5726 5722 5720 5717 5715 5713 5711 5706 5701 5697 5693 5690 5689 5689 5687 5685 5684 5683 5682 5680 5679 5677 5675 5673 5670 5666 5663 5659 5655 5653 5650 5646 5643 5641 5638 5634 5630 5627 5623 5619
5734 5730 5727 5723 5721 5717 5714 5711 5708 5704 5699 5695 5692 5690 5689 5687 5686 5684 5683 5681 5679 5678 5677 5675 5672 5669 5666 5662 5659 5654 5651 5648 5645 5642 5640 5637 5634 5630 5626 5622 5618 5615